{"data":{"norad_id":58381,"intl_designator":"2023-178H","name":"STARLINK-30923","alt_names":[],"object_type":"PAYLOAD","status":"ACTIVE","operator":null,"country":"US","launch_date":"2023-11-20","launch_site_code":"AFWTR","launch_vehicle":null,"mission":null,"orbit_class":"UNKNOWN","rcs_meters":null,"size_class":null,"mass_kg":null,"dimensions":null,"purposes":["comms"],"wikipedia_slug":null,"has_3d_model":false,"image_url":null,"decayed_at":null,"tle_current":{"epoch":"2026-09-20T02:55:22.092672Z","epoch_age_seconds":176321,"freshness":"STALE","line1":"1 58381U 23178H   26263.12178348  .00044514  00000+0  10741-2 0  9991","line2":"2 58381  53.1569 172.7011 0003382 160.4362 199.6774 15.40787798159669","mean_motion":15.40787798,"eccentricity":0.0003382,"inclination_deg":53.1569,"raan_deg":172.7011,"arg_perigee_deg":160.4362,"mean_anomaly_deg":199.6774,"bstar":0.0010741,"rev_number":15966,"period_min":93.458684049106,"perigee_km":441.47580835966,"apogee_km":446.09015503528,"semimajor_km":6821.9199816975,"source":"CELESTRAK","updated_at":"2026-09-21T09:00:33.866138Z"}}}